Time,TemperatureF,DewpointF,PressureIn,WindDirection,WindDirectionDegrees,WindSpeedMPH,WindSpeedGustMPH,Humidity,HourlyPrecipIn,Conditions,Clouds,dailyrainin,SoftwareType,DateUTC
2013-01-16 00:00:00,33.3,7.3,29.74,NW,322,0.0,4.0,33,0.00,,-RA,0.12,VWS V14.00,2013-01-16 05:00:00,
2013-01-16 00:03:00,33.3,9.2,29.74,NW,321,3.6,3.6,36,0.00,,-RA,0.00,VWS V14.00,2013-01-16 05:03:00,
2013-01-16 00:08:00,33.1,10.2,29.74,NNW,333,0.0,3.6,38,0.00,,-RA,0.00,VWS V14.00,2013-01-16 05:08:00,
2013-01-16 00:13:00,32.7,11.6,29.74,NW,326,3.6,3.6,41,0.00,,-RA,0.00,VWS V14.00,2013-01-16 05:13:00,
2013-01-16 00:18:00,32.4,11.9,29.74,NW,319,6.3,6.3,42,0.00,,-RA,0.00,VWS V14.00,2013-01-16 05:18:00,
2013-01-16 00:23:00,31.8,12.4,29.74,NW,323,5.8,6.3,44,0.00,,-RA,0.00,VWS V14.00,2013-01-16 05:23:00,
2013-01-16 00:28:00,31.6,13.2,29.74,NNW,328,3.1,6.3,46,0.00,,-RA,0.00,VWS V14.00,2013-01-16 05:28:00,
2013-01-16 00:33:00,31.5,13.1,29.74,North,0,3.6,6.3,46,0.00,,-RA,0.00,VWS V14.00,2013-01-16 05:33:00,
2013-01-16 00:38:00,31.3,13.9,29.74,WNW,302,3.6,6.3,48,0.00,,-RA,0.00,VWS V14.00,2013-01-16 05:38:00,
2013-01-16 00:43:00,31.3,14.4,29.74,NW,312,5.4,5.4,49,0.00,,-RA,0.00,VWS V14.00,2013-01-16 05:43:00,
2013-01-16 00:48:00,31.3,15.3,29.74,NW,317,2.7,5.4,51,0.00,,-RA,0.00,VWS V14.00,2013-01-16 05:48:00,
2013-01-16 00:53:00,31.1,15.1,29.74,NE,48,4.0,5.4,51,0.00,,-RA,0.00,VWS V14.00,2013-01-16 05:53:00,
2013-01-16 00:58:00,30.9,15.4,29.74,West,264,3.6,5.4,52,0.00,,-RA,0.00,VWS V14.00,2013-01-16 05:58:00,
2013-01-16 01:03:00,30.9,15.4,29.74,NW,318,3.6,3.6,52,0.00,,,0.00,VWS V14.00,2013-01-16 06:03:00,
2013-01-16 01:09:00,30.7,15.6,29.74,NNW,329,0.0,3.6,53,0.00,,,0.00,VWS V14.00,2013-01-16 06:09:00,
2013-01-16 01:14:00,30.7,15.6,29.74,NNW,328,0.0,3.6,53,0.00,,,0.00,VWS V14.00,2013-01-16 06:14:00,
2013-01-16 01:19:00,30.7,15.6,29.71,NW,320,3.1,3.6,53,0.00,,,0.00,VWS V14.00,2013-01-16 06:19:00,
2013-01-16 01:24:00,30.7,16.1,29.71,NW,321,0.0,2.7,54,0.00,,,0.00,VWS V14.00,2013-01-16 06:24:00,
2013-01-16 01:29:00,30.7,16.1,29.71,NNW,327,2.7,2.7,54,0.00,,,0.00,VWS V14.00,2013-01-16 06:29:00,
2013-01-16 01:34:00,30.7,16.1,29.71,NNW,345,0.0,2.7,54,0.00,,,0.00,VWS V14.00,2013-01-16 06:34:00,
2013-01-16 01:39:00,30.7,16.1,29.71,NNW,345,0.0,2.7,54,0.00,,,0.00,VWS V14.00,2013-01-16 06:39:00,
2013-01-16 01:44:00,30.7,16.1,29.71,NNW,345,0.0,0.0,54,0.00,,,0.00,VWS V14.00,2013-01-16 06:44:00,
2013-01-16 01:49:00,30.7,16.1,29.71,NW,307,2.2,3.1,54,0.00,,,0.00,VWS V14.00,2013-01-16 06:49:00,
2013-01-16 01:54:00,30.7,16.1,29.71,NW,307,0.0,3.1,54,0.00,,,0.00,VWS V14.00,2013-01-16 06:54:00,
2013-01-16 01:59:00,30.7,16.1,29.71,NW,307,0.0,3.1,54,0.00,,,0.00,VWS V14.00,2013-01-16 06:59:00,
2013-01-16 02:04:00,30.7,16.5,29.71,WNW,300,2.7,3.1,55,0.00,,,0.00,VWS V14.00,2013-01-16 07:04:00,
2013-01-16 02:09:00,30.7,16.5,29.71,NNW,343,0.0,3.1,55,0.00,,,0.00,VWS V14.00,2013-01-16 07:09:00,
2013-01-16 02:14:00,30.7,16.5,29.71,WNW,303,3.6,3.6,55,0.00,,,0.00,VWS V14.00,2013-01-16 07:14:00,
2013-01-16 02:19:00,30.7,16.5,29.71,NW,323,0.0,3.6,55,0.00,,,0.00,VWS V14.00,2013-01-16 07:19:00,
2013-01-16 02:24:00,30.6,16.7,29.71,NW,318,0.0,0.0,56,0.00,,,0.00,VWS V14.00,2013-01-16 07:24:00,
2013-01-16 02:29:00,30.6,16.3,29.71,NW,305,0.0,0.0,55,0.00,,,0.00,VWS V14.00,2013-01-16 07:29:00,
2013-01-16 02:34:00,30.6,16.3,29.71,NNW,340,0.0,0.0,55,0.00,,,0.00,VWS V14.00,2013-01-16 07:34:00,
2013-01-16 02:39:00,30.6,16.7,29.71,WNW,297,3.1,3.1,56,0.00,,,0.00,VWS V14.00,2013-01-16 07:39:00,
2013-01-16 02:44:00,30.6,16.7,29.71,NW,312,2.2,3.1,56,0.00,,FZRA,0.00,VWS V14.00,2013-01-16 07:44:00,
2013-01-16 02:49:00,30.6,16.7,29.71,NW,317,3.1,3.1,56,0.00,,FZRA,0.00,VWS V14.00,2013-01-16 07:49:00,
2013-01-16 02:54:00,30.6,16.7,29.68,NW,322,0.0,3.1,56,0.00,,FZRA,0.00,VWS V14.00,2013-01-16 07:54:00,
2013-01-16 02:59:00,30.6,17.6,29.68,NW,321,2.7,5.4,58,0.00,,FZRA,0.00,VWS V14.00,2013-01-16 07:59:00,
2013-01-16 03:04:00,30.6,17.6,29.68,NNW,334,0.0,4.0,58,0.00,,FZRA,0.00,VWS V14.00,2013-01-16 08:04:00,
2013-01-16 03:09:00,30.6,17.6,29.68,NW,320,3.6,4.0,58,0.00,,FZRA,0.00,VWS V14.00,2013-01-16 08:09:00,
2013-01-16 03:14:00,30.6,18.0,29.68,NW,325,3.6,4.0,59,0.00,,,0.00,VWS V14.00,2013-01-16 08:14:00,
2013-01-16 03:19:00,30.6,18.0,29.65,North,349,3.1,4.0,59,0.00,,,0.00,VWS V14.00,2013-01-16 08:19:00,
2013-01-16 03:24:00,30.6,17.6,29.65,NNW,341,4.0,4.0,58,0.00,,,0.00,VWS V14.00,2013-01-16 08:24:00,
2013-01-16 03:29:00,30.6,17.6,29.65,NNW,340,2.7,6.3,58,0.00,,,0.00,VWS V14.00,2013-01-16 08:29:00,
2013-01-16 03:34:00,30.6,17.6,29.65,NNW,331,3.1,6.3,58,0.00,,FZRA,0.00,VWS V14.00,2013-01-16 08:34:00,
2013-01-16 03:39:00,30.6,16.7,29.65,NW,307,4.0,6.3,56,0.00,,FZRA,0.00,VWS V14.00,2013-01-16 08:39:00,
2013-01-16 03:44:00,30.6,16.7,29.65,NW,312,2.2,4.0,56,0.00,,FZRA,0.00,VWS V14.00,2013-01-16 08:44:00,
2013-01-16 03:49:00,30.6,16.7,29.65,NW,313,0.0,4.0,56,0.00,,FZRA,0.00,VWS V14.00,2013-01-16 08:49:00,
2013-01-16 03:54:00,30.6,16.7,29.65,North,353,2.7,4.0,56,0.00,,FZRA,0.00,VWS V14.00,2013-01-16 08:54:00,
2013-01-16 03:59:00,30.6,16.3,29.65,North,353,2.7,4.0,55,0.00,,FZRA,0.00,VWS V14.00,2013-01-16 08:59:00,
2013-01-16 04:04:00,30.6,16.3,29.65,NNW,335,0.0,2.7,55,0.00,,FZRA,0.00,VWS V14.00,2013-01-16 09:04:00,
2013-01-16 04:09:00,30.6,15.9,29.65,NW,317,0.0,2.7,54,0.00,,FZRA,0.00,VWS V14.00,2013-01-16 09:09:00,
2013-01-16 04:14:00,30.6,15.9,29.65,NW,317,0.0,2.7,54,0.00,,FZRA,0.00,VWS V14.00,2013-01-16 09:14:00,
2013-01-16 04:19:00,30.4,15.7,29.65,NW,311,5.4,5.4,54,0.00,,FZRA,0.00,VWS V14.00,2013-01-16 09:19:00,
2013-01-16 04:24:00,30.2,15.6,29.65,NW,322,3.1,5.4,54,0.00,,FZRA,0.00,VWS V14.00,2013-01-16 09:24:00,
2013-01-16 04:29:00,30.2,15.1,29.62,NW,316,0.0,5.4,53,0.00,,FZRA,0.00,VWS V14.00,2013-01-16 09:29:00,
2013-01-16 04:34:00,30.2,15.6,29.62,NW,316,0.0,5.4,54,0.00,,,0.00,VWS V14.00,2013-01-16 09:34:00,
2013-01-16 04:39:00,30.2,15.6,29.62,NNW,331,2.7,5.4,54,0.00,,,0.00,VWS V14.00,2013-01-16 09:39:00,
2013-01-16 04:44:00,30.2,15.6,29.62,NW,315,2.7,4.0,54,0.00,,,0.00,VWS V14.00,2013-01-16 09:44:00,
2013-01-16 04:49:00,30.2,16.0,29.62,NNW,331,0.0,4.0,55,0.00,,,0.00,VWS V14.00,2013-01-16 09:49:00,
2013-01-16 04:54:00,30.2,16.0,29.62,NW,322,0.0,4.0,55,0.00,,,0.00,VWS V14.00,2013-01-16 09:54:00,
2013-01-16 04:59:00,30.2,16.0,29.62,NW,322,0.0,4.0,55,0.00,,,0.00,VWS V14.00,2013-01-16 09:59:00,
2013-01-16 05:05:00,30.2,16.0,29.62,North,357,2.2,3.1,55,0.00,,,0.00,VWS V14.00,2013-01-16 10:05:00,
2013-01-16 05:10:00,30.2,16.0,29.62,NW,322,0.0,3.1,55,0.00,,,0.00,VWS V14.00,2013-01-16 10:10:00,
2013-01-16 05:15:00,30.2,16.0,29.62,NW,322,0.0,3.1,55,0.00,,,0.00,VWS V14.00,2013-01-16 10:15:00,
2013-01-16 05:20:00,30.2,16.0,29.59,ESE,105,0.0,3.1,55,0.00,,,0.00,VWS V14.00,2013-01-16 10:20:00,
2013-01-16 05:25:00,30.2,16.0,29.59,West,267,0.0,0.0,55,0.00,,,0.00,VWS V14.00,2013-01-16 10:25:00,
2013-01-16 05:30:00,30.2,16.0,29.59,West,267,0.0,0.0,55,0.00,,,0.00,VWS V14.00,2013-01-16 10:30:00,
2013-01-16 05:35:00,30.2,16.0,29.59,West,267,0.0,0.0,55,0.00,,,0.00,VWS V14.00,2013-01-16 10:35:00,
2013-01-16 05:40:00,30.2,16.0,29.59,North,2,0.0,0.0,55,0.00,,,0.00,VWS V14.00,2013-01-16 10:40:00,
2013-01-16 05:45:00,30.2,16.0,29.59,North,0,0.0,2.2,55,0.00,,,0.00,VWS V14.00,2013-01-16 10:45:00,
2013-01-16 05:50:00,30.2,16.0,29.59,NW,324,0.0,2.2,55,0.00,,,0.00,VWS V14.00,2013-01-16 10:50:00,
2013-01-16 05:55:00,30.2,16.0,29.59,North,349,0.0,2.2,55,0.00,,,0.00,VWS V14.00,2013-01-16 10:55:00,
2013-01-16 06:00:00,30.2,16.0,29.59,North,349,0.0,2.2,55,0.00,,,0.00,VWS V14.00,2013-01-16 11:00:00,
2013-01-16 06:05:00,30.2,16.0,29.59,North,349,0.0,0.0,55,0.00,,OVC009,0.00,VWS V14.00,2013-01-16 11:05:00,
2013-01-16 06:10:00,30.2,16.0,29.59,NW,317,4.0,4.0,55,0.00,,OVC009,0.00,VWS V14.00,2013-01-16 11:10:00,
2013-01-16 06:15:00,30.2,16.0,29.59,NW,317,0.0,4.0,55,0.00,,OVC009,0.00,VWS V14.00,2013-01-16 11:15:00,
2013-01-16 06:20:00,30.2,16.0,29.59,NW,317,0.0,4.0,55,0.00,,OVC009,0.00,VWS V14.00,2013-01-16 11:20:00,
2013-01-16 06:25:00,30.2,16.0,29.59,NW,308,0.0,0.0,55,0.00,,OVC009,0.00,VWS V14.00,2013-01-16 11:25:00,
2013-01-16 06:30:00,30.2,16.0,29.59,NW,308,0.0,0.0,55,0.00,,OVC009,0.00,VWS V14.00,2013-01-16 11:30:00,
2013-01-16 06:35:00,30.2,16.0,29.59,NW,308,0.0,0.0,55,0.00,,OVC009,0.00,VWS V14.00,2013-01-16 11:35:00,
2013-01-16 06:40:00,30.2,16.0,29.59,NW,308,0.0,0.0,55,0.00,,OVC009,0.00,VWS V14.00,2013-01-16 11:40:00,
2013-01-16 06:45:00,30.2,16.0,29.59,NW,308,0.0,0.0,55,0.00,,OVC009,0.00,VWS V14.00,2013-01-16 11:45:00,
2013-01-16 06:50:00,30.2,16.0,29.59,NW,308,0.0,0.0,55,0.00,,OVC009,0.00,VWS V14.00,2013-01-16 11:50:00,
2013-01-16 06:55:00,30.2,16.0,29.59,NW,308,0.0,0.0,55,0.00,,OVC009,0.00,VWS V14.00,2013-01-16 11:55:00,
2013-01-16 07:00:00,30.2,15.6,29.59,NW,308,0.0,0.0,54,0.00,,OVC009,0.00,VWS V14.00,2013-01-16 12:00:00,
2013-01-16 07:05:00,30.2,15.6,29.59,NW,308,0.0,0.0,54,0.00,,,0.00,VWS V14.00,2013-01-16 12:05:00,
2013-01-16 07:10:00,30.2,15.6,29.59,NW,308,0.0,0.0,54,0.00,,,0.00,VWS V14.00,2013-01-16 12:10:00,
2013-01-16 07:15:00,30.4,15.7,29.59,NW,308,0.0,0.0,54,0.00,,,0.00,VWS V14.00,2013-01-16 12:15:00,
2013-01-16 07:20:00,30.4,15.7,29.59,NW,308,0.0,0.0,54,0.00,,,0.00,VWS V14.00,2013-01-16 12:20:00,
2013-01-16 07:25:00,30.4,15.7,29.59,NW,308,0.0,0.0,54,0.00,,OVC007,0.00,VWS V14.00,2013-01-16 12:25:00,
2013-01-16 07:30:00,30.6,15.9,29.59,NW,308,0.0,0.0,54,0.00,,OVC007,0.00,VWS V14.00,2013-01-16 12:30:00,
2013-01-16 07:35:00,30.6,15.9,29.59,NW,308,0.0,0.0,54,0.00,,OVC007,0.00,VWS V14.00,2013-01-16 12:35:00,
2013-01-16 07:40:00,30.6,15.9,29.59,NW,308,0.0,0.0,54,0.00,,OVC007,0.00,VWS V14.00,2013-01-16 12:40:00,
2013-01-16 07:45:00,30.7,16.1,29.59,NW,308,0.0,0.0,54,0.00,,OVC007,0.00,VWS V14.00,2013-01-16 12:45:00,
2013-01-16 07:50:00,30.7,16.1,29.56,NW,308,0.0,0.0,54,0.00,,OVC007,0.00,VWS V14.00,2013-01-16 12:50:00,
2013-01-16 07:55:00,30.7,16.1,29.56,NW,308,0.0,0.0,54,0.00,,OVC007,0.00,VWS V14.00,2013-01-16 12:55:00,
2013-01-16 08:00:00,30.7,16.1,29.56,NW,308,0.0,0.0,54,0.00,,OVC007,0.00,VWS V14.00,2013-01-16 13:00:00,
2013-01-16 08:05:00,30.9,16.2,29.56,NW,308,0.0,0.0,54,0.00,,,0.00,VWS V14.00,2013-01-16 13:05:00,
2013-01-16 08:10:00,30.9,16.2,29.56,NW,308,0.0,0.0,54,0.00,,,0.00,VWS V14.00,2013-01-16 13:10:00,
2013-01-16 08:15:00,30.9,16.2,29.56,NW,308,0.0,0.0,54,0.00,,,0.00,VWS V14.00,2013-01-16 13:15:00,
2013-01-16 08:20:00,30.9,16.2,29.56,NW,308,0.0,0.0,54,0.00,,,0.00,VWS V14.00,2013-01-16 13:20:00,
2013-01-16 08:25:00,30.9,16.2,29.56,NW,308,0.0,0.0,54,0.00,,,0.00,VWS V14.00,2013-01-16 13:25:00,
2013-01-16 08:30:00,31.1,16.4,29.56,NW,308,0.0,0.0,54,0.00,,,0.00,VWS V14.00,2013-01-16 13:30:00,
2013-01-16 08:35:00,31.1,16.4,29.53,ENE,59,0.0,0.0,54,0.00,,,0.00,VWS V14.00,2013-01-16 13:35:00,
2013-01-16 08:40:00,30.9,15.8,29.53,ENE,63,0.0,0.0,53,0.00,,,0.00,VWS V14.00,2013-01-16 13:40:00,
2013-01-16 08:45:00,30.9,15.8,29.53,NW,308,4.0,4.0,53,0.00,,,0.00,VWS V14.00,2013-01-16 13:45:00,
2013-01-16 08:50:00,30.9,15.8,29.53,WNW,298,0.0,4.0,53,0.00,,,0.00,VWS V14.00,2013-01-16 13:50:00,
2013-01-16 08:55:00,30.9,15.8,29.53,WNW,300,3.6,6.3,53,0.00,,,0.00,VWS V14.00,2013-01-16 13:55:00,
2013-01-16 09:00:00,30.9,15.8,29.53,NW,305,0.0,6.3,53,0.00,,,0.00,VWS V14.00,2013-01-16 14:00:00,
2013-01-16 09:05:00,30.9,15.8,29.53,NW,314,4.9,4.9,53,0.00,,,0.00,VWS V14.00,2013-01-16 14:05:00,
2013-01-16 09:10:00,31.1,16.4,29.53,NW,305,0.0,4.9,54,0.00,,,0.00,VWS V14.00,2013-01-16 14:10:00,
2013-01-16 09:15:00,31.1,16.4,29.53,NW,305,0.0,4.9,54,0.00,,,0.00,VWS V14.00,2013-01-16 14:15:00,
2013-01-16 09:20:00,31.1,16.4,29.50,NW,305,0.0,4.9,54,0.00,,,0.00,VWS V14.00,2013-01-16 14:20:00,
2013-01-16 09:25:00,31.1,16.4,29.50,NW,305,0.0,0.0,54,0.00,,,0.00,VWS V14.00,2013-01-16 14:25:00,
2013-01-16 09:30:00,31.3,16.6,29.50,NW,305,0.0,0.0,54,0.00,,,0.00,VWS V14.00,2013-01-16 14:30:00,
2013-01-16 09:35:00,31.3,16.6,29.50,NW,305,0.0,0.0,54,0.00,,,0.00,VWS V14.00,2013-01-16 14:35:00,
2013-01-16 09:40:00,31.5,16.8,29.50,NW,305,0.0,0.0,54,0.00,,,0.00,VWS V14.00,2013-01-16 14:40:00,
2013-01-16 09:45:00,31.6,16.9,29.50,NW,305,0.0,0.0,54,0.00,,,0.00,VWS V14.00,2013-01-16 14:45:00,
2013-01-16 09:50:00,31.6,16.9,29.50,NW,305,2.2,3.6,54,0.00,,,0.00,VWS V14.00,2013-01-16 14:50:00,
2013-01-16 09:55:00,31.8,17.1,29.50,NW,305,0.0,3.6,54,0.00,,,0.00,VWS V14.00,2013-01-16 14:55:00,
2013-01-16 10:00:00,31.8,17.1,29.50,NW,305,0.0,0.0,54,0.00,,,0.00,VWS V14.00,2013-01-16 15:00:00,
2013-01-16 10:05:00,32.2,17.4,29.50,NW,305,0.0,0.0,54,0.00,,,0.00,VWS V14.00,2013-01-16 15:05:00,
2013-01-16 10:10:00,32.2,17.4,29.50,NW,305,0.0,0.0,54,0.00,,,0.00,VWS V14.00,2013-01-16 15:10:00,
2013-01-16 10:15:00,32.4,17.6,29.50,NW,305,0.0,0.0,54,0.00,,,0.00,VWS V14.00,2013-01-16 15:15:00,
2013-01-16 10:20:00,32.4,17.6,29.50,NW,305,0.0,0.0,54,0.00,,,0.00,VWS V14.00,2013-01-16 15:20:00,
2013-01-16 10:25:00,32.5,17.8,29.50,NW,305,0.0,0.0,54,0.00,,,0.00,VWS V14.00,2013-01-16 15:25:00,
2013-01-16 10:30:00,32.5,17.8,29.50,WNW,297,0.0,2.2,54,0.00,,,0.00,VWS V14.00,2013-01-16 15:30:00,
2013-01-16 10:36:00,32.7,17.9,29.50,NW,307,0.0,2.2,54,0.00,,,0.00,VWS V14.00,2013-01-16 15:36:00,
2013-01-16 10:41:00,32.7,17.9,29.50,NW,307,0.0,0.0,54,0.00,,,0.00,VWS V14.00,2013-01-16 15:41:00,
2013-01-16 10:46:00,32.7,17.9,29.50,NW,307,0.0,0.0,54,0.00,,,0.00,VWS V14.00,2013-01-16 15:46:00,
2013-01-16 10:51:00,32.7,17.5,29.50,NW,307,0.0,0.0,53,0.00,,,0.00,VWS V14.00,2013-01-16 15:51:00,
2013-01-16 10:56:00,32.9,17.7,29.50,NW,307,0.0,0.0,53,0.00,,,0.00,VWS V14.00,2013-01-16 15:56:00,
2013-01-16 11:01:00,32.9,17.7,29.50,NW,307,0.0,0.0,53,0.00,,,0.00,VWS V14.00,2013-01-16 16:01:00,
2013-01-16 11:06:00,32.9,17.7,29.50,NW,307,0.0,0.0,53,0.00,,,0.00,VWS V14.00,2013-01-16 16:06:00,
2013-01-16 11:11:00,32.9,17.7,29.50,NW,307,0.0,0.0,53,0.00,,,0.00,VWS V14.00,2013-01-16 16:11:00,
2013-01-16 11:16:00,32.9,17.7,29.50,NW,307,0.0,0.0,53,0.00,,,0.00,VWS V14.00,2013-01-16 16:16:00,
2013-01-16 11:21:00,32.9,17.2,29.50,NW,308,0.0,0.0,52,0.00,,,0.00,VWS V14.00,2013-01-16 16:21:00,
2013-01-16 11:26:00,32.9,17.2,29.47,NW,324,0.0,0.0,52,0.00,,,0.00,VWS V14.00,2013-01-16 16:26:00,
2013-01-16 11:31:00,32.9,17.2,29.47,NW,316,0.0,0.0,52,0.00,,,0.00,VWS V14.00,2013-01-16 16:31:00,
2013-01-16 11:36:00,32.9,17.2,29.50,NW,316,0.0,0.0,52,0.00,,,0.00,VWS V14.00,2013-01-16 16:36:00,
2013-01-16 11:41:00,33.1,17.4,29.50,NW,316,0.0,0.0,52,0.00,,,0.00,VWS V14.00,2013-01-16 16:41:00,
2013-01-16 11:46:00,33.1,17.4,29.50,NW,316,0.0,0.0,52,0.00,,,0.00,VWS V14.00,2013-01-16 16:46:00,
2013-01-16 11:51:00,33.1,17.4,29.47,NW,316,0.0,0.0,52,0.00,,,0.00,VWS V14.00,2013-01-16 16:51:00,
2013-01-16 11:56:00,33.1,17.4,29.47,NW,316,0.0,0.0,52,0.00,,,0.00,VWS V14.00,2013-01-16 16:56:00,
2013-01-16 12:01:00,33.1,17.4,29.47,NW,316,0.0,0.0,52,0.00,,,0.00,VWS V14.00,2013-01-16 17:01:00,
2013-01-16 12:06:00,33.1,17.4,29.44,NW,316,0.0,0.0,52,0.00,,,0.00,VWS V14.00,2013-01-16 17:06:00,
2013-01-16 12:11:00,33.1,17.4,29.44,ENE,77,0.0,0.0,52,0.00,,,0.00,VWS V14.00,2013-01-16 17:11:00,
2013-01-16 12:16:00,32.9,17.2,29.44,ENE,67,0.0,0.0,52,0.00,,,0.00,VWS V14.00,2013-01-16 17:16:00,
2013-01-16 12:21:00,32.9,17.2,29.44,WNW,300,0.0,3.1,52,0.00,,,0.00,VWS V14.00,2013-01-16 17:21:00,
2013-01-16 12:26:00,32.7,17.0,29.44,WNW,294,0.0,2.7,52,0.00,,,0.00,VWS V14.00,2013-01-16 17:26:00,
2013-01-16 12:31:00,32.7,17.0,29.44,WNW,294,0.0,2.7,52,0.00,,,0.00,VWS V14.00,2013-01-16 17:31:00,
2013-01-16 12:36:00,32.7,17.0,29.41,WNW,294,0.0,2.7,52,0.00,,,0.00,VWS V14.00,2013-01-16 17:36:00,
2013-01-16 12:41:00,32.7,17.0,29.41,NW,308,0.0,2.7,52,0.00,,,0.00,VWS V14.00,2013-01-16 17:41:00,
2013-01-16 12:46:00,32.7,17.5,29.41,WNW,292,0.0,2.7,53,0.00,,,0.00,VWS V14.00,2013-01-16 17:46:00,
2013-01-16 12:51:00,32.7,17.5,29.38,NE,53,0.0,2.7,53,0.00,,,0.00,VWS V14.00,2013-01-16 17:51:00,
2013-01-16 12:56:00,32.7,17.5,29.38,WNW,296,0.0,2.7,53,0.00,,,0.00,VWS V14.00,2013-01-16 17:56:00,
2013-01-16 13:01:00,32.7,17.9,29.38,East,84,0.0,2.7,54,0.00,,,0.00,VWS V14.00,2013-01-16 18:01:00,
2013-01-16 13:06:00,32.7,17.9,29.38,ESE,117,0.0,2.7,54,0.00,,,0.00,VWS V14.00,2013-01-16 18:06:00,
2013-01-16 13:11:00,32.5,17.8,29.38,ENE,72,2.7,2.7,54,0.00,,,0.00,VWS V14.00,2013-01-16 18:11:00,
2013-01-16 13:16:00,32.5,18.2,29.38,WNW,300,0.0,4.0,55,0.00,,,0.00,VWS V14.00,2013-01-16 18:16:00,
2013-01-16 13:21:00,32.5,18.2,29.38,NW,308,0.0,0.0,55,0.00,,,0.00,VWS V14.00,2013-01-16 18:21:00,
2013-01-16 13:26:00,32.5,18.6,29.38,NW,305,0.0,3.1,56,0.00,,,0.00,VWS V14.00,2013-01-16 18:26:00,
2013-01-16 13:31:00,32.7,18.8,29.38,WNW,301,0.0,3.1,56,0.00,,,0.00,VWS V14.00,2013-01-16 18:31:00,
2013-01-16 13:36:00,32.7,18.8,29.35,NW,316,0.0,3.1,56,0.00,,,0.00,VWS V14.00,2013-01-16 18:36:00,
2013-01-16 13:41:00,32.7,19.2,29.35,NW,316,0.0,0.0,57,0.00,,,0.00,VWS V14.00,2013-01-16 18:41:00,
2013-01-16 13:46:00,32.7,19.2,29.35,SE,135,3.1,3.1,57,0.00,,,0.00,VWS V14.00,2013-01-16 18:46:00,
2013-01-16 13:51:00,32.9,19.8,29.35,SSE,149,2.7,4.0,58,0.00,,,0.00,VWS V14.00,2013-01-16 18:51:00,
2013-01-16 13:56:00,33.1,19.9,29.41,SSE,149,0.0,4.0,58,0.00,,,0.00,VWS V14.00,2013-01-16 18:56:00,
2013-01-16 14:01:00,33.3,20.1,29.41,SSE,149,0.0,0.0,58,0.00,,,0.00,VWS V14.00,2013-01-16 19:01:00,
2013-01-16 14:06:00,33.3,20.5,29.41,SSE,149,0.0,0.0,59,0.00,,,0.00,VWS V14.00,2013-01-16 19:06:00,
2013-01-16 14:11:00,33.3,20.5,29.44,NW,305,0.0,0.0,59,0.00,,,0.00,VWS V14.00,2013-01-16 19:11:00,
2013-01-16 14:16:00,33.3,20.5,29.44,WNW,293,3.1,3.6,59,0.00,,,0.00,VWS V14.00,2013-01-16 19:16:00,
2013-01-16 14:21:00,33.1,20.3,29.41,NW,312,0.0,0.0,59,0.00,,,0.00,VWS V14.00,2013-01-16 19:21:00,
2013-01-16 14:26:00,33.1,20.7,29.41,NNE,26,0.0,3.6,60,0.00,,,0.00,VWS V14.00,2013-01-16 19:26:00,
2013-01-16 14:31:00,33.1,20.7,29.41,NW,309,0.0,3.6,60,0.00,,,0.00,VWS V14.00,2013-01-16 19:31:00,
2013-01-16 14:36:00,33.1,20.7,29.41,NW,309,0.0,3.6,60,0.00,,,0.00,VWS V14.00,2013-01-16 19:36:00,
2013-01-16 14:41:00,33.1,20.7,29.41,NW,309,0.0,0.0,60,0.00,,,0.00,VWS V14.00,2013-01-16 19:41:00,
2013-01-16 14:46:00,32.9,20.2,29.41,NW,309,0.0,0.0,59,0.00,,,0.00,VWS V14.00,2013-01-16 19:46:00,
2013-01-16 14:51:00,32.9,20.2,29.41,NW,309,0.0,0.0,59,0.00,,,0.00,VWS V14.00,2013-01-16 19:51:00,
2013-01-16 14:56:00,32.9,20.2,29.41,NW,309,0.0,3.6,59,0.00,,,0.00,VWS V14.00,2013-01-16 19:56:00,
2013-01-16 15:01:00,32.7,20.0,29.41,NW,313,3.1,3.1,59,0.00,,,0.00,VWS V14.00,2013-01-16 20:01:00,
2013-01-16 15:06:00,32.7,20.0,29.41,WNW,282,0.0,3.1,59,0.00,,,0.00,VWS V14.00,2013-01-16 20:06:00,
2013-01-16 15:11:00,32.7,20.0,29.41,NW,312,0.0,3.1,59,0.00,,,0.00,VWS V14.00,2013-01-16 20:11:00,
2013-01-16 15:16:00,32.7,20.0,29.41,NW,312,0.0,3.1,59,0.00,,,0.00,VWS V14.00,2013-01-16 20:16:00,
2013-01-16 15:21:00,32.7,20.0,29.41,NW,312,0.0,0.0,59,0.00,,,0.00,VWS V14.00,2013-01-16 20:21:00,
2013-01-16 15:27:00,32.7,20.0,29.41,NW,313,0.0,0.0,59,0.00,,,0.00,VWS V14.00,2013-01-16 20:27:00,
2013-01-16 15:31:00,32.7,20.0,29.41,NW,315,0.0,2.7,59,0.00,,,0.00,VWS V14.00,2013-01-16 20:31:00,
2013-01-16 15:37:00,32.7,20.0,29.41,NW,315,0.0,2.7,59,0.00,,,0.00,VWS V14.00,2013-01-16 20:37:00,
2013-01-16 15:41:00,32.7,19.6,29.41,NW,314,0.0,0.0,58,0.00,,,0.00,VWS V14.00,2013-01-16 20:41:00,
2013-01-16 15:47:00,32.5,19.4,29.41,NW,315,0.0,0.0,58,0.00,,,0.00,VWS V14.00,2013-01-16 20:47:00,
2013-01-16 15:52:00,32.5,19.4,29.41,NW,315,0.0,0.0,58,0.00,,,0.00,VWS V14.00,2013-01-16 20:52:00,
2013-01-16 15:57:00,32.5,19.4,29.41,NW,315,0.0,0.0,58,0.00,,,0.00,VWS V14.00,2013-01-16 20:57:00,
2013-01-16 16:02:00,32.7,19.6,29.41,NW,315,0.0,0.0,58,0.00,,,0.00,VWS V14.00,2013-01-16 21:02:00,
2013-01-16 16:07:00,32.7,19.6,29.38,NW,315,0.0,0.0,58,0.00,,,0.00,VWS V14.00,2013-01-16 21:07:00,
2013-01-16 16:12:00,32.7,19.6,29.38,NW,315,0.0,0.0,58,0.00,,,0.00,VWS V14.00,2013-01-16 21:12:00,
2013-01-16 16:17:00,32.7,19.2,29.38,NW,315,0.0,0.0,57,0.00,,,0.00,VWS V14.00,2013-01-16 21:17:00,
2013-01-16 16:22:00,32.7,19.2,29.38,NW,315,0.0,0.0,57,0.00,,,0.00,VWS V14.00,2013-01-16 21:22:00,
2013-01-16 16:27:00,32.7,19.2,29.41,NW,315,0.0,0.0,57,0.00,,,0.00,VWS V14.00,2013-01-16 21:27:00,
2013-01-16 16:32:00,32.7,19.2,29.41,NW,315,0.0,0.0,57,0.00,,,0.00,VWS V14.00,2013-01-16 21:32:00,
2013-01-16 16:37:00,32.7,19.2,29.41,NW,315,0.0,0.0,57,0.00,,,0.00,VWS V14.00,2013-01-16 21:37:00,
2013-01-16 16:42:00,32.9,19.4,29.41,NW,315,0.0,0.0,57,0.00,,,0.00,VWS V14.00,2013-01-16 21:42:00,
2013-01-16 16:47:00,32.9,19.4,29.41,NW,315,0.0,0.0,57,0.00,,,0.00,VWS V14.00,2013-01-16 21:47:00,
2013-01-16 16:52:00,32.9,18.9,29.41,NW,315,0.0,0.0,56,0.00,,,0.00,VWS V14.00,2013-01-16 21:52:00,
2013-01-16 16:57:00,32.9,18.9,29.41,NW,315,0.0,0.0,56,0.00,,,0.00,VWS V14.00,2013-01-16 21:57:00,
2013-01-16 17:02:00,33.1,19.1,29.41,NW,315,0.0,0.0,56,0.00,,,0.00,VWS V14.00,2013-01-16 22:02:00,
2013-01-16 17:07:00,33.1,19.1,29.41,NW,315,0.0,0.0,56,0.00,,,0.00,VWS V14.00,2013-01-16 22:07:00,
2013-01-16 17:12:00,33.1,19.1,29.41,SE,129,0.0,2.7,56,0.00,,,0.00,VWS V14.00,2013-01-16 22:12:00,
2013-01-16 17:17:00,33.1,19.1,29.41,SE,129,0.0,2.7,56,0.00,,,0.00,VWS V14.00,2013-01-16 22:17:00,
2013-01-16 17:22:00,33.1,19.1,29.41,SSE,151,0.0,2.2,56,0.00,,,0.00,VWS V14.00,2013-01-16 22:22:00,
2013-01-16 17:27:00,33.1,19.1,29.41,SSE,151,0.0,2.2,56,0.00,,,0.00,VWS V14.00,2013-01-16 22:27:00,
2013-01-16 17:32:00,33.1,19.1,29.41,SSE,151,0.0,2.2,56,0.00,,,0.00,VWS V14.00,2013-01-16 22:32:00,
2013-01-16 17:37:00,33.1,19.1,29.41,SSE,151,0.0,2.2,56,0.00,,,0.00,VWS V14.00,2013-01-16 22:37:00,
2013-01-16 17:42:00,33.3,19.3,29.41,SSE,151,0.0,0.0,56,0.00,,,0.00,VWS V14.00,2013-01-16 22:42:00,
2013-01-16 17:47:00,33.3,19.3,29.41,SSE,151,0.0,0.0,56,0.00,,,0.00,VWS V14.00,2013-01-16 22:47:00,
2013-01-16 17:52:00,33.3,18.9,29.41,SSE,151,0.0,0.0,55,0.00,,,0.00,VWS V14.00,2013-01-16 22:52:00,
2013-01-16 17:57:00,33.3,18.9,29.41,SSE,151,0.0,0.0,55,0.00,,,0.00,VWS V14.00,2013-01-16 22:57:00,
2013-01-16 18:02:00,33.3,18.9,29.41,SSE,151,0.0,0.0,55,0.00,,,0.00,VWS V14.00,2013-01-16 23:02:00,
2013-01-16 18:07:00,33.3,18.9,29.41,SSE,151,0.0,0.0,55,0.00,,,0.00,VWS V14.00,2013-01-16 23:07:00,
2013-01-16 18:12:00,33.3,18.9,29.41,SSE,151,0.0,0.0,55,0.00,,,0.00,VWS V14.00,2013-01-16 23:12:00,
2013-01-16 18:17:00,33.4,19.0,29.41,SE,135,4.0,4.0,55,0.00,,,0.00,VWS V14.00,2013-01-16 23:17:00,
2013-01-16 18:22:00,33.4,19.0,29.41,SE,146,0.0,0.0,55,0.00,,,0.00,VWS V14.00,2013-01-16 23:22:00,
2013-01-16 18:27:00,33.4,19.0,29.41,SE,146,0.0,0.0,55,0.00,,,0.00,VWS V14.00,2013-01-16 23:27:00,
2013-01-16 18:32:00,33.4,19.0,29.41,SE,146,0.0,0.0,55,0.00,,,0.00,VWS V14.00,2013-01-16 23:32:00,
2013-01-16 18:37:00,33.4,19.0,29.41,SE,146,0.0,0.0,55,0.00,,,0.00,VWS V14.00,2013-01-16 23:37:00,
2013-01-16 18:42:00,33.4,19.0,29.41,SE,146,0.0,0.0,55,0.00,,,0.00,VWS V14.00,2013-01-16 23:42:00,
2013-01-16 18:47:00,33.6,19.2,29.41,SE,146,0.0,0.0,55,0.00,,,0.00,VWS V14.00,2013-01-16 23:47:00,
2013-01-16 18:52:00,33.6,19.2,29.41,SE,146,0.0,0.0,55,0.00,,,0.00,VWS V14.00,2013-01-16 23:52:00,
2013-01-16 18:57:00,33.6,19.2,29.41,SE,146,0.0,0.0,55,0.00,,,0.00,VWS V14.00,2013-01-16 23:57:00,
2013-01-16 19:02:00,33.6,18.8,29.41,SE,146,0.0,0.0,54,0.00,,,0.00,VWS V14.00,2013-01-17 00:02:00,
2013-01-16 19:07:00,33.6,18.8,29.41,SE,146,0.0,0.0,54,0.00,,,0.00,VWS V14.00,2013-01-17 00:07:00,
2013-01-16 19:12:00,33.6,18.8,29.41,SE,146,0.0,0.0,54,0.00,,,0.00,VWS V14.00,2013-01-17 00:12:00,
2013-01-16 19:17:00,33.6,18.8,29.41,SE,146,0.0,0.0,54,0.00,,,0.00,VWS V14.00,2013-01-17 00:17:00,
2013-01-16 19:22:00,33.6,18.8,29.41,SE,146,0.0,0.0,54,0.00,,,0.00,VWS V14.00,2013-01-17 00:22:00,
2013-01-16 19:27:00,33.8,18.9,29.41,SE,146,0.0,0.0,54,0.00,,,0.00,VWS V14.00,2013-01-17 00:27:00,
2013-01-16 19:32:00,33.8,18.9,29.41,SE,146,3.6,3.6,54,0.00,,,0.00,VWS V14.00,2013-01-17 00:32:00,
2013-01-16 19:37:00,34.0,19.1,29.41,SSE,155,0.0,3.6,54,0.00,,,0.00,VWS V14.00,2013-01-17 00:37:00,
2013-01-16 19:42:00,34.2,19.3,29.41,SSE,155,0.0,0.0,54,0.00,,,0.00,VWS V14.00,2013-01-17 00:42:00,
2013-01-16 19:47:00,34.3,19.4,29.41,SSE,155,0.0,0.0,54,0.00,,,0.00,VWS V14.00,2013-01-17 00:47:00,